Location: Newark
(47.5333°N, 8.7000°E)
Time: 05:18:56
(UTC+00:00)

BEESAT 3 - Visible Passes

Search period start: 26 November 2020 00:00
Search period end: 06 December 2020 00:00
Orbit: 488 x 514 km, 64.9° (Epoch: 25 November)

Date Brightness Start Highest point End Pass type
(mag) Time Alt. Az. Time Alt. Az. Time Alt. Az.
26 Nov ? 04:06:05 43° ESE 04:06:05 43° ESE 04:09:36 10° NE visible
26 Nov ? 05:40:50 14° W 05:43:22 26° NW 05:46:41 10° NNE visible
27 Nov ? 03:47:15 25° ENE 03:47:15 25° ENE 03:49:09 10° NE visible
27 Nov ? 05:21:59 24° WNW 05:22:56 27° NW 05:26:17 10° NNE visible
28 Nov ? 03:28:09 13° NE 03:28:09 13° NE 03:28:41 10° NE visible
28 Nov ? 05:02:52 28° NNW 05:02:52 28° NNW 05:05:55 10° NNE visible
29 Nov ? 04:43:34 23° N 04:43:34 23° N 04:45:30 10° NNE visible
30 Nov ? 04:24:08 16° NNE 04:24:08 16° NNE 04:25:06 10° NNE visible
01 Dec ? 04:04:35 11° NNE 04:04:35 11° NNE 04:04:41 10° NNE visible
